| time (UTC) | temp F | wind direction | speed MPH | gust MPH | rain 1hr in | rain 24hr in | rain mn in | humidity % | barometer mb |
| 20260905024006 | 58 | 259 | 0.0 | 3.0 | 0.00 | 0.46 | 0.00 | 87 | 1001.9 |
| 20260905023008 | 58 | 252 | 0.0 | 5.0 | 0.00 | 0.46 | 0.00 | 87 | 1001.9 |
| 20260905022006 | 58 | 266 | 0.0 | 3.0 | 0.00 | 0.46 | 0.00 | 87 | 1001.9 |
| 20260905021005 | 58 | 271 | 1.0 | 10.0 | 0.00 | 0.46 | 0.00 | 87 | 1001.8 |
| 20260905020007 | 58 | 291 | 1.0 | 10.0 | 0.00 | 0.46 | 0.00 | 87 | 1001.5 |
| 20260905015005 | 58 | 275 | 0.0 | 5.0 | 0.00 | 0.46 | 0.00 | 88 | 1001.4 |
| 20260905014006 | 58 | 269 | 0.0 | 3.0 | 0.00 | 0.46 | 0.00 | 88 | 1001.4 |
| 20260905013007 | 58 | 280 | 0.0 | 6.0 | 0.00 | 0.46 | 0.00 | 89 | 1001.1 |
| 20260905012006 | 58 | 256 | 0.0 | 5.0 | 0.00 | 0.46 | 0.00 | 89 | 1001.0 |
| 20260905011005 | 58 | 267 | 1.0 | 9.0 | 0.00 | 0.46 | 0.00 | 89 | 1000.9 |
| 20260905010008 | 58 | 279 | 0.0 | 10.0 | 0.00 | 0.46 | 0.00 | 89 | 1000.8 |
| 20260905005005 | 58 | 248 | 0.0 | 10.0 | 0.00 | 0.46 | 0.00 | 89 | 1000.9 |
| 20260905004006 | 58 | 259 | 0.0 | 6.0 | 0.00 | 0.46 | 0.00 | 89 | 1000.8 |
| 20260905003008 | 58 | 205 | 0.0 | 6.0 | 0.00 | 0.46 | 0.00 | 89 | 1000.5 |
| 20260905002005 | 58 | 241 | 1.0 | 9.0 | 0.00 | 0.46 | 0.00 | 89 | 1000.4 |
| 20260905001005 | 58 | 254 | 2.0 | 14.0 | 0.00 | 0.47 | 0.00 | 89 | 1000.3 |
| 20260905000008 | 58 | 257 | 1.0 | 9.0 | 0.00 | 0.47 | 0.00 | 89 | 1000.4 |
| 20260904235005 | 58 | 249 | 1.0 | 12.0 | 0.00 | 0.47 | 0.00 | 89 | 1000.3 |
| 20260904234006 | 58 | 258 | 1.0 | 12.0 | 0.00 | 0.47 | 0.00 | 90 | 1000.3 |
| 20260904233008 | 58 | 236 | 2.0 | 18.0 | 0.00 | 0.48 | 0.00 | 89 | 1000.3 |
| 20260904232005 | 58 | 250 | 0.0 | 12.0 | 0.00 | 0.50 | 0.00 | 89 | 1000.2 |
| 20260904231006 | 58 | 247 | 1.0 | 9.0 | 0.00 | 0.50 | 0.00 | 89 | 1000.1 |
| 20260904230007 | 58 | 233 | 0.0 | 16.0 | 0.00 | 0.50 | 0.00 | 89 | 1000.2 |
| 20260904225006 | 58 | 263 | 1.0 | 12.0 | 0.00 | 0.50 | 0.00 | 89 | 1000.1 |
| 20260904224005 | 58 | 237 | 0.0 | 9.0 | 0.00 | 0.50 | 0.00 | 89 | 1000.2 |
| 20260904223007 | 58 | 236 | 1.0 | 13.0 | 0.00 | 0.50 | 0.00 | 90 | 1000.2 |
| 20260904222006 | 58 | 250 | 0.0 | 13.0 | 0.00 | 0.50 | 0.00 | 90 | 1000.1 |
| 20260904221005 | 58 | 245 | 2.0 | 12.0 | 0.00 | 0.50 | 0.00 | 90 | 1000.1 |
| 20260904220008 | 58 | 261 | 1.0 | 13.0 | 0.00 | 0.50 | 0.00 | 90 | 1000.0 |
| 20260904215006 | 58 | 255 | 2.0 | 16.0 | 0.00 | 0.50 | 0.50 | 90 | 999.8 |
| 20260904214005 | 58 | 249 | 2.0 | 10.0 | 0.00 | 0.50 | 0.50 | 90 | 999.8 |
| 20260904213008 | 58 | 249 | 5.0 | 15.0 | 0.00 | 0.50 | 0.50 | 90 | 999.8 |
| 20260904212006 | 58 | 245 | 3.0 | 14.0 | 0.00 | 0.50 | 0.50 | 91 | 999.7 |
| 20260904211005 | 58 | 248 | 5.0 | 14.0 | 0.00 | 0.50 | 0.50 | 91 | 999.7 |
| 20260904210007 | 57 | 264 | 3.0 | 15.0 | 0.00 | 0.50 | 0.50 | 91 | 999.5 |
| 20260904205006 | 57 | 256 | 1.0 | 9.0 | 0.00 | 0.50 | 0.50 | 91 | 999.4 |
| 20260904204006 | 57 | 287 | 3.0 | 12.0 | 0.00 | 0.50 | 0.50 | 92 | 999.3 |
| 20260904203008 | 57 | 248 | 3.0 | 15.0 | 0.00 | 0.50 | 0.50 | 92 | 999.3 |
| 20260904202005 | 58 | 254 | 3.0 | 12.0 | 0.00 | 0.50 | 0.50 | 93 | 999.2 |
| 20260904201006 | 58 | 217 | 3.0 | 14.0 | 0.00 | 0.50 | 0.50 | 93 | 999.1 |
| 20260904200008 | 58 | 266 | 5.0 | 14.0 | 0.01 | 0.50 | 0.50 | 93 | 998.9 |
| 20260904195005 | 58 | 234 | 4.0 | 15.0 | 0.01 | 0.50 | 0.50 | 93 | 998.8 |
| 20260904194006 | 58 | 268 | 3.0 | 12.0 | 0.04 | 0.50 | 0.50 | 94 | 998.6 |
| 20260904193008 | 58 | 230 | 2.0 | 6.0 | 0.04 | 0.50 | 0.50 | 94 | 998.7 |
| 20260904192005 | 58 | 257 | 2.0 | 12.0 | 0.04 | 0.50 | 0.50 | 94 | 998.6 |
| 20260904191005 | 58 | 239 | 3.0 | 12.0 | 0.05 | 0.50 | 0.50 | 94 | 998.4 |
| 20260904190017 | 58 | 232 | 4.0 | 13.0 | 0.04 | 0.49 | 0.49 | 93 | 998.2 |
| 20260904185005 | 58 | 223 | 2.0 | 14.0 | 0.04 | 0.49 | 0.49 | 93 | 998.1 |
| 20260904184006 | 58 | 239 | 6.0 | 13.0 | 0.01 | 0.46 | 0.46 | 93 | 998.0 |
| 20260904183008 | 58 | 238 | 3.0 | 7.0 | 0.01 | 0.46 | 0.46 | 93 | 998.0 |
| 20260904182005 | 58 | 237 | 3.0 | 13.0 | 0.01 | 0.46 | 0.46 | 93 | 997.9 |
| 20260904181005 | 58 | 219 | 2.0 | 12.0 | 0.00 | 0.45 | 0.45 | 93 | 997.9 |
| 20260904180007 | 58 | 197 | 2.0 | 9.0 | 0.00 | 0.45 | 0.45 | 93 | 997.8 |
| 20260904175005 | 58 | 229 | 1.0 | 6.0 | 0.00 | 0.45 | 0.45 | 93 | 997.8 |
| 20260904174006 | 59 | 213 | 1.0 | 6.0 | 0.00 | 0.45 | 0.45 | 93 | 997.8 |
| 20260904173008 | 59 | 205 | 0.0 | 8.0 | 0.00 | 0.45 | 0.45 | 93 | 997.8 |
| 20260904172006 | 59 | 198 | 2.0 | 8.0 | 0.00 | 0.45 | 0.45 | 93 | 997.8 |
| 20260904171005 | 59 | 233 | 1.0 | 9.0 | 0.00 | 0.45 | 0.45 | 93 | 997.8 |
| 20260904170008 | 59 | 236 | 2.0 | 9.0 | 0.00 | 0.45 | 0.45 | 93 | 997.9 |
| 20260904165005 | 60 | 209 | 0.0 | 2.0 | 0.00 | 0.45 | 0.45 | 93 | 997.7 |
| 20260904164005 | 60 | 216 | 0.0 | 3.0 | 0.00 | 0.45 | 0.45 | 93 | 997.4 |
| 20260904163008 | 60 | 235 | 0.0 | 2.0 | 0.00 | 0.45 | 0.45 | 93 | 997.7 |
| 20260904162005 | 60 | 220 | 1.0 | 8.0 | 0.00 | 0.45 | 0.45 | 93 | 997.7 |
| 20260904161005 | 60 | 213 | 1.0 | 5.0 | 0.00 | 0.45 | 0.45 | 93 | 997.7 |
| 20260904160008 | 60 | 179 | 1.0 | 8.0 | 0.00 | 0.45 | 0.45 | 93 | 997.9 |
| 20260904155005 | 60 | 228 | 1.0 | 9.0 | 0.00 | 0.45 | 0.45 | 93 | 997.9 |
| 20260904154008 | 60 | 220 | 2.0 | 9.0 | 0.00 | 0.45 | 0.45 | 93 | 998.1 |
| 20260904153007 | 60 | 218 | 2.0 | 9.0 | 0.01 | 0.45 | 0.45 | 93 | 998.1 |
| 20260904152005 | 60 | 230 | 1.0 | 7.0 | 0.01 | 0.45 | 0.45 | 93 | 998.0 |
| 20260904151005 | 60 | 232 | 1.0 | 10.0 | 0.01 | 0.45 | 0.45 | 94 | 998.0 |
| 20260904150008 | 60 | 229 | 2.0 | 7.0 | 0.01 | 0.45 | 0.45 | 94 | 998.0 |
| 20260904145005 | 60 | 220 | 1.0 | 7.0 | 0.01 | 0.45 | 0.45 | 94 | 997.9 |
| 20260904144006 | 60 | 220 | 3.0 | 8.0 | 0.02 | 0.46 | 0.45 | 94 | 998.1 |
| 20260904143008 | 59 | 222 | 2.0 | 6.0 | 0.01 | 0.45 | 0.44 | 94 | 998.0 |
| 20260904142006 | 59 | 236 | 1.0 | 3.0 | 0.02 | 0.46 | 0.44 | 93 | 998.2 |
| 20260904141005 | 59 | 224 | 1.0 | 7.0 | 0.06 | 0.47 | 0.44 | 93 | 998.2 |
| 20260904140008 | 58 | 231 | 1.0 | 7.0 | 0.10 | 0.47 | 0.44 | 93 | 998.2 |
| 20260904135006 | 58 | 221 | 1.0 | 6.0 | 0.18 | 0.47 | 0.44 | 93 | 998.2 |
| 20260904134006 | 58 | 203 | 0.0 | 5.0 | 0.23 | 0.46 | 0.43 | 93 | 998.5 |
| 20260904133008 | 58 | 297 | 0.0 | 12.0 | 0.25 | 0.46 | 0.43 | 93 | 998.4 |
| 20260904132006 | 58 | 301 | 1.0 | 20.0 | 0.25 | 0.46 | 0.43 | 93 | 998.4 |
| 20260904131006 | 60 | 336 | 14.0 | 20.0 | 0.22 | 0.42 | 0.39 | 93 | 998.1 |
| 20260904130008 | 61 | 184 | 2.0 | 10.0 | 0.17 | 0.37 | 0.34 | 93 | 998.0 |
| 20260904125005 | 61 | 185 | 2.0 | 5.0 | 0.12 | 0.29 | 0.26 | 93 | 998.2 |
| 20260904124006 | 61 | 176 | 2.0 | 7.0 | 0.07 | 0.24 | 0.20 | 93 | 998.2 |
| 20260904123008 | 61 | 145 | 1.0 | 3.0 | 0.06 | 0.21 | 0.18 | 93 | 998.2 |
| 20260904122006 | 61 | 162 | 1.0 | 3.0 | 0.06 | 0.20 | 0.17 | 93 | 998.3 |
| 20260904121006 | 61 | 200 | 1.0 | 5.0 | 0.06 | 0.20 | 0.17 | 93 | 998.8 |
| 20260904120008 | 60 | 185 | 1.0 | 5.0 | 0.07 | 0.20 | 0.17 | 93 | 998.8 |
| 20260904115006 | 61 | 203 | 1.0 | 3.0 | 0.06 | 0.18 | 0.14 | 93 | 999.0 |
| 20260904114005 | 61 | 176 | 0.0 | 5.0 | 0.05 | 0.18 | 0.13 | 93 | 999.3 |
| 20260904113008 | 61 | 205 | 1.0 | 3.0 | 0.04 | 0.17 | 0.12 | 93 | 999.3 |
| 20260904112006 | 61 | 208 | 1.0 | 6.0 | 0.04 | 0.16 | 0.11 | 93 | 999.3 |
| 20260904111006 | 61 | 168 | 1.0 | 5.0 | 0.03 | 0.15 | 0.10 | 93 | 999.3 |
| 20260904110008 | 61 | 193 | 1.0 | 6.0 | 0.03 | 0.14 | 0.09 | 93 | 999.3 |
| 20260904105006 | 61 | 203 | 1.0 | 7.0 | 0.02 | 0.13 | 0.09 | 93 | 999.5 |
| 20260904104006 | 61 | 219 | 0.0 | 6.0 | 0.02 | 0.13 | 0.09 | 93 | 999.6 |
| 20260904103008 | 61 | 215 | 0.0 | 7.0 | 0.02 | 0.13 | 0.08 | 93 | 999.8 |
| 20260904102006 | 61 | 185 | 0.0 | 7.0 | 0.02 | 0.12 | 0.07 | 93 | 999.8 |
| 20260904101006 | 61 | 170 | 1.0 | 6.0 | 0.02 | 0.12 | 0.07 | 93 | 1000.0 |
| 20260904100009 | 61 | 167 | 2.0 | 6.0 | 0.02 | 0.11 | 0.06 | 93 | 1000.1 |
| 20260904095006 | 60 | 160 | 0.0 | 7.0 | 0.02 | 0.12 | 0.06 | 93 | 1000.3 |
| 20260904094006 | 60 | 188 | 0.0 | 12.0 | 0.02 | 0.12 | 0.06 | 92 | 1000.4 |
| 20260904093008 | 60 | 166 | 1.0 | 6.0 | 0.02 | 0.11 | 0.06 | 92 | 1000.6 |
| 20260904092006 | 60 | 160 | 1.0 | 7.0 | 0.01 | 0.10 | 0.05 | 92 | 1000.9 |
| 20260904091006 | 60 | 176 | 1.0 | 3.0 | 0.02 | 0.11 | 0.05 | 92 | 1000.9 |
| 20260904090008 | 60 | 169 | 0.0 | 6.0 | 0.02 | 0.12 | 0.05 | 92 | 1001.1 |
| 20260904085006 | 60 | 168 | 0.0 | 3.0 | 0.02 | 0.13 | 0.05 | 92 | 1001.4 |
| 20260904084006 | 60 | 193 | 1.0 | 5.0 | 0.01 | 0.12 | 0.04 | 91 | 1001.5 |
| 20260904083008 | 60 | 170 | 0.0 | 6.0 | 0.01 | 0.13 | 0.04 | 91 | 1001.6 |
| 20260904082006 | 60 | 167 | 0.0 | 9.0 | 0.01 | 0.13 | 0.04 | 91 | 1001.6 |
| 20260904081006 | 59 | 169 | 0.0 | 6.0 | 0.00 | 0.13 | 0.03 | 90 | 1001.9 |
| 20260904080008 | 59 | 174 | 0.0 | 7.0 | 0.00 | 0.14 | 0.03 | 90 | 1001.9 |
| 20260904075006 | 59 | 170 | 1.0 | 12.0 | 0.00 | 0.14 | 0.03 | 91 | 1001.9 |
| 20260904074006 | 59 | 170 | 0.0 | 6.0 | 0.00 | 0.14 | 0.03 | 91 | 1002.0 |
| 20260904073008 | 59 | 170 | 1.0 | 6.0 | 0.00 | 0.14 | 0.03 | 91 | 1001.9 |
| 20260904072006 | 59 | 170 | 0.0 | 0.0 | 0.00 | 0.15 | 0.03 | 91 | 1002.0 |
| 20260904071006 | 59 | 163 | 0.0 | 2.0 | 0.00 | 0.15 | 0.03 | 91 | 1002.3 |
| 20260904070008 | 59 | 190 | 0.0 | 3.0 | 0.00 | 0.15 | 0.03 | 91 | 1002.4 |
| 20260904065006 | 59 | 163 | 0.0 | 3.0 | 0.00 | 0.16 | 0.03 | 91 | 1002.5 |
| 20260904064006 | 59 | 198 | 0.0 | 2.0 | 0.00 | 0.16 | 0.03 | 91 | 1002.7 |
| 20260904063008 | 59 | 209 | 0.0 | 0.0 | 0.00 | 0.16 | 0.03 | 91 | 1002.9 |
| 20260904062006 | 59 | 192 | 0.0 | 1.0 | 0.00 | 0.16 | 0.03 | 91 | 1003.0 |
| 20260904061005 | 59 | 199 | 0.0 | 0.0 | 0.00 | 0.16 | 0.03 | 91 | 1003.0 |
| 20260904060008 | 59 | 217 | 0.0 | 0.0 | 0.00 | 0.16 | 0.03 | 90 | 1003.1 |
| 20260904055006 | 59 | 231 | 0.0 | 7.0 | 0.00 | 0.17 | 0.03 | 90 | 1003.3 |
| 20260904054006 | 59 | 198 | 0.0 | 6.0 | 0.00 | 0.17 | 0.03 | 90 | 1003.6 |
| 20260904053008 | 59 | 248 | 0.0 | 5.0 | 0.00 | 0.17 | 0.03 | 90 | 1003.7 |
| 20260904052005 | 59 | 219 | 0.0 | 0.0 | 0.00 | 0.17 | 0.03 | 90 | 1003.9 |
| 20260904051005 | 59 | 209 | 0.0 | 1.0 | 0.00 | 0.17 | 0.03 | 90 | 1003.8 |
| 20260904050008 | 59 | 203 | 0.0 | 5.0 | 0.00 | 0.17 | 0.03 | 90 | 1004.0 |
| 20260904045006 | 59 | 236 | 0.0 | 5.0 | 0.00 | 0.17 | 0.03 | 90 | 1004.0 |
| 20260904044005 | 59 | 227 | 1.0 | 5.0 | 0.00 | 0.17 | 0.03 | 90 | 1004.0 |
| 20260904043008 | 59 | 226 | 0.0 | 3.0 | 0.00 | 0.17 | 0.03 | 90 | 1004.0 |
| 20260904042007 | 59 | 218 | 0.0 | 12.0 | 0.00 | 0.17 | 0.03 | 89 | 1004.0 |
| 20260904041006 | 59 | 227 | 0.0 | 6.0 | 0.00 | 0.17 | 0.03 | 89 | 1003.8 |
| 20260904040011 | 59 | 239 | 0.0 | 6.0 | 0.00 | 0.17 | 0.03 | 89 | 1004.0 |
| 20260904035007 | 59 | 230 | 0.0 | 12.0 | 0.00 | 0.17 | 0.03 | 90 | 1004.1 |
| 20260904034007 | 59 | 253 | 0.0 | 14.0 | 0.00 | 0.17 | 0.03 | 90 | 1004.4 |
| 20260904033010 | 59 | 226 | 1.0 | 9.0 | 0.00 | 0.17 | 0.03 | 90 | 1004.3 |
| 20260904032007 | 59 | 224 | 1.0 | 7.0 | 0.00 | 0.17 | 0.03 | 90 | 1004.6 |
| 20260904031007 | 59 | 263 | 1.0 | 10.0 | 0.00 | 0.17 | 0.03 | 91 | 1004.6 |
| 20260904030008 | 59 | 235 | 2.0 | 13.0 | 0.00 | 0.17 | 0.03 | 91 | 1004.6 |
| 20260904025006 | 59 | 242 | 2.0 | 12.0 | 0.00 | 0.17 | 0.03 | 91 | 1004.6 |